Вернуться в каталог

FENGYUN 1C DEB

АктивенLEO
NORAD 32105·DEBRIS·🇨🇳 China

Запущен May 10, 1999 с Taiyuan Satellite Launch Center

Loading…

Ближайшие Пролёты (ближайшие 24 часа)

TLE

УстаревшееSource: Space-Track

Эпоха: Sep 7, 2026, 01:10 UTC

1 32105U 99025CQX 26250.04864581  .00002194  00000-0  25577-2 0  9991
2 32105 103.4615 334.6214 0398173 236.3239 119.9308 13.41255234633075

Отслеживайте FENGYUN 1C DEB в реальном времени с AllMySat

Download on the App Store